[TLELIST] Archives

 

[list_settings.list_name] Current TLEs

September 20th 2013 PDT

HST 1 20580U 90037B 13262.77895713 .00001143 00000-0 68758-4 0 3356 2 20580 028.4712 012.5848 0002958 284.7004 209.8934 15.03928939 83957 ISS (ZARYA) 1 25544U 98067A 13263.45453470 .00011468 00000-0 20592-3 0 6355 2 25544 051.6514 356.2364 0003046 068.1903 336.4614 15.50372272849487 CXO 1 25867U 99040B 13263.13584258 .00000029 00000-0 00000+0 0 9520 2 25867 075.9600 334.1143 8463291 276.7658 000.5228 00.37802915 10890 ____________________________________________________________________ These 2-Line ...Continue Reading

[list_settings.list_name] Current TLEs

September 19th 2013 PDT

HST 1 20580U 90037B 13261.50953164 .00001110 00000-0 66409-4 0 3345 2 20580 028.4711 020.9097 0002888 270.2282 177.9651 15.03925883 83759 ISS (ZARYA) 1 25544U 98067A 13262.43109786 .00010383 00000-0 18740-3 0 6302 2 25544 051.6510 001.3101 0003072 066.5906 022.1731 15.50343443849324 CXO 1 25867U 99040B 13263.13584258 .00000029 00000-0 00000+0 0 9520 2 25867 075.9600 334.1143 8463291 276.7658 000.5228 00.37802915 10890 ____________________________________________________________________ These 2-Line ...Continue Reading

[list_settings.list_name] Current TLEs

September 18th 2013 PDT

HST 1 20580U 90037B 13260.44368946 .00001400 00000-0 86970-4 0 3331 2 20580 028.4710 027.8994 0002845 257.9781 168.2295 15.03923206 83595 ISS (ZARYA) 1 25544U 98067A 13261.39769569 .00009792 00000-0 17735-3 0 6223 2 25544 051.6510 006.4328 0003019 063.5627 013.7697 15.50319421849167 CXO 1 25867U 99040B 13263.13584258 .00000029 00000-0 00000+0 0 9520 2 25867 075.9600 334.1143 8463291 276.7658 000.5228 00.37802915 10890 ____________________________________________________________________ These 2-Line ...Continue Reading

[list_settings.list_name] Current TLEs

September 17th 2013 PDT

HST 1 20580U 90037B 13257.86746920 .00001482 00000-0 92760-4 0 3328 2 20580 028.4708 044.7946 0002803 227.9492 262.8049 15.03917152 83217 ISS (ZARYA) 1 25544U 98067A 13260.36449317 .00009176 00000-0 16683-3 0 6154 2 25544 051.6519 011.5556 0002842 060.9872 006.1171 15.50297142849003 CXO 1 25867U 99040B 13263.13584258 .00000029 00000-0 00000+0 0 9520 2 25867 075.9600 334.1143 8463291 276.7658 000.5228 00.37802915 10890 ____________________________________________________________________ These 2-Line ...Continue Reading

[list_settings.list_name] Current TLEs

September 16th 2013 PDT

HST 1 20580U 90037B 13257.86746920 .00001482 00000-0 92760-4 0 3328 2 20580 028.4708 044.7946 0002803 227.9492 262.8049 15.03917152 83217 ISS (ZARYA) 1 25544U 98067A 13259.39774317 -.00015626 00000-0 -26389-3 0 6081 2 25544 051.6490 016.3471 0003151 052.3759 015.6936 15.50259157848853 CXO 1 25867U 99040B 13260.49038042 .00000245 00000-0 00000+0 0 9510 2 25867 075.9495 334.2519 8469801 276.7884 000.4433 00.37804427 10880 ____________________________________________________________________ These 2-Line ...Continue Reading

[list_settings.list_name] Current TLEs

September 15th 2013 PDT

HST 1 20580U 90037B 13257.86746920 .00001482 00000-0 92760-4 0 3328 2 20580 028.4708 044.7946 0002803 227.9492 262.8049 15.03917152 83217 ISS (ZARYA) 1 25544U 98067A 13258.37276230 .00005683 00000-0 10542-3 0 5981 2 25544 051.6515 021.4212 0003985 066.7497 036.9925 15.50560725848696 CXO 1 25867U 99040B 13260.49038042 .00000245 00000-0 00000+0 0 9510 2 25867 075.9495 334.2519 8469801 276.7884 000.4433 00.37804427 10880 ____________________________________________________________________ These 2-Line ...Continue Reading

[list_settings.list_name] Current TLEs

September 14th 2013 PDT

HST 1 20580U 90037B 13256.80712994 .00001510 00000-0 94760-4 0 3318 2 20580 028.4707 051.7483 0002828 215.3072 283.3386 15.03916368 83054 ISS (ZARYA) 1 25544U 98067A 13257.39411753 .00009538 00000-0 17147-3 0 5894 2 25544 051.6513 026.2718 0004512 061.0221 336.3457 15.50562234848546 CXO 1 25867U 99040B 13257.84380626 .00000418 00000-0 00000+0 0 9504 2 25867 075.9327 334.4189 8474488 276.7815 000.2920 00.37803934 10870 ____________________________________________________________________ These 2-Line ...Continue Reading

[list_settings.list_name] Current TLEs

September 13th 2013 PDT

HST 1 20580U 90037B 13255.80453941 .00001296 00000-0 79584-4 0 3308 2 20580 028.4706 058.3235 0002842 203.6773 256.1443 15.03914491 82893 ISS (ZARYA) 1 25544U 98067A 13256.43948073 .00010012 00000-0 17970-3 0 5846 2 25544 051.6520 031.0062 0004460 059.5739 045.5184 15.50546501848396 CXO 1 25867U 99040B 13255.19939560 .00000379 00000-0 00000+0 0 9491 2 25867 075.9207 334.5578 8476968 276.7779 000.4542 00.37800427 10869 ____________________________________________________________________ These 2-Line ...Continue Reading

[list_settings.list_name] Current TLEs

September 12th 2013 PDT

HST 1 20580U 90037B 13253.95223914 .00001190 00000-0 72131-4 0 3299 2 20580 028.4704 070.4712 0002875 182.3444 309.1971 15.03909845 82623 ISS (ZARYA) 1 25544U 98067A 13255.40645532 .00010675 00000-0 19117-3 0 5756 2 25544 051.6520 036.1305 0004099 055.0293 039.9963 15.50531784848238 CXO 1 25867U 99040B 13255.19939560 .00000379 00000-0 00000+0 0 9491 2 25867 075.9207 334.5578 8476968 276.7779 000.4542 00.37800427 10869 ____________________________________________________________________ These 2-Line ...Continue Reading

[list_settings.list_name] Current TLEs

September 11th 2013 PDT

HST 1 20580U 90037B 13253.95223914 .00001190 00000-0 72131-4 0 3299 2 20580 028.4704 070.4712 0002875 182.3444 309.1971 15.03909845 82623 ISS (ZARYA) 1 25544U 98067A 13254.37403433 .00005453 00000-0 10174-3 0 5687 2 25544 051.6511 041.2469 0003624 057.8906 030.4668 15.50488357848077 CXO 1 25867U 99040B 13255.19939560 .00000379 00000-0 00000+0 0 9491 2 25867 075.9207 334.5578 8476968 276.7779 000.4542 00.37800427 10869 ____________________________________________________________________ These 2-Line ...Continue Reading
  • This mailing list is a public mailing list - anyone may join or leave, at any time.
  • This mailing list is announce-only.

International Space Station (ISS) / Hubble Space Telescope (HST) / Chandra X-Ray Observatory Orbital Data via EMAIL

Privacy Policy:

Private list